Temp
69 70 73 74 72 73 72 71 72 72 71 69 68 67 67 67 68 68 70 69 70 71 70 69 68 68 68 68 68 67 66 67 68 65 66 67 69 70 70 71 73 72 73
68 70 71 71 68 69 71 68 66 67 70 69 68 68 67 67 67 67 68 70 70 70 70 68 68 68 68 67 68 67 66 66 67 64 63 62 65 67 69 70 71 71 72
66 67 69 68 70 68 67 64 65 67 70 70 68 67 67 66 65 65 66 68 69 69 69 69 68 68 68 67 67 68 66 65 66 67 64 60 60 63 67 69 70 70 70
69 67 68 66 67 68 67 66 66 65 70 70 68 67 65 64 64 64 65 66 68 68 69 68 68 67 67 67 68 68 67 65 64 66 66 66 64 61 61 65 68 69 70
69 66 68 67 69 70 70 69 68 67 70 70 68 66 65 64 65 64 64 65 66 67 68 68 67 67 67 67 67 67 66 66 65 66 64 64 65 64 62 60 63 66 68
70 69 67 67 67 68 68 70 70 69 69 68 67 66 64 63 63 63 63 64 64 65 66 68 67 67 67 67 67 67 67 66 66 65 64 65 64 63 62 61 62 62 67
68 66 66 65 66 67 69 70 69 67 67 67 66 66 64 64 63 64 63 63 63 64 65 66 66 66 67 67 67 66 66 66 65 65 64 65 65 65 64 63 62 61 64
68 66 66 66 68 68 69 69 67 66 66 66 66 65 65 64 63 64 64 63 63 64 66 66 66 67 67 67 67 67 66 66 66 65 65 65 66 66 66 64 62 61 61
65 65 66 68 69 69 69 68 67 66 66 66 65 64 64 64 63 64 64 64 65 66 67 67 66 66 67 67 66 67 69 67 65 65 65 65 66 67 67 66 65 63 60
68 67 67 67 68 69 68 68 67 66 66 66 65 65 64 64 64 64 64 64 65 65 66 66 66 66 66 66 66 67 67 67 66 65 65 66 66 66 66 66 66 66 64
67 67 68 68 68 68 68 67 66 66 66 66 65 65 65 64 64 64 64 64 65 65 66 65 65 65 65 66 65 64 66 66 65 65 65 65 66 65 66 66 65 65 65
68 67 68 70 68 67 67 67 67 66 66 66 65 65 65 65 64 64 64 64 64 65 66 66 64 64 65 65 65 66 67 66 65 65 64 65 67 65 66 65 65 64 65
66 65 67 69 67 67 67 67 66 67 66 66 65 64 64 64 64 64 64 64 64 64 64 64 64 63 62 62 62 63 63 62 63 64 65 65 65 64 63 63 63 63 64
67 66 66 65 67 67 66 66 66 68 67 67 66 65 64 64 64 64 64 64 64 63 62 62 63 63 64 64 63 62 61 60 60 61 61 62 62 61 61 61 62 62 63
64 65 66 66 66 65 64 66 66 66 67 67 66 66 65 65 65 64 63 63 62 61 60 60 61 62 62 62 61 62 61 59 58 59 60 61 63 63 63 61 61 62 61
66 67 64 63 61 61 61 63 63 64 66 67 67 70 66 66 65 63 62 61 58 56 57 57 60 60 61 59 60 59 57 56 57 56 57 57 58 59 59 60 60 59 60
63 62 61 60 58 58 59 59 62 63 64 66 68 69 66 64 64 62 60 57 55 54 53 55 57 58 59 58 59 60 58 59 58 57 57 58 57 55 55 57 58 58 59
61 60 59 57 56 56 56 57 61 61 61 63 65 66 65 64 62 60 57 55 53 52 50 50 51 56 57 55 55 56 53 51 51 53 57 56 56 56 57 57 55 55 56
58 57 57 55 54 54 55 55 56 60 61 60 64 66 64 63 60 55 52 50 49 48 48 52 55 55 54 53 54 54 51 50 49 50 52 52 52 56 56 55 53 53 52
57 56 55 53 53 52 52 55 54 55 54 56 57 65 64 60 56 54 51 50 51 48 49 50 53 54 54 52 52 56 54 49 49 49 49 54 51 52 52 53 53 52 52
55 56 55 53 53 51 51 52 52 51 53 54 55 55 57 56 54 53 52 51 49 48 48 48 51 51 53 51 50 52 55 53 52 50 49 48 50 49 49 51 53 51 53
55 55 53 52 52 53 52 50 50 52 52 52 51 51 53 53 52 50 50 51 50 49 49 48 48 49 49 49 49 49 51 54 52 50 50 48 47 46 48 51 48 49 52
54 54 52 51 52 52 52 50 51 52 52 51 50 50 51 51 51 50 49 49 50 49 48 48 47 47 48 49 48 48 50 51 49 49 50 49 47 48 49 48 48 48 45
53 53 52 50 50 52 52 52 51 51 50 48 48 48 48 48 48 48 49 48 48 47 47 47 46 46 47 48 48 49 49 51 49 50 51 50 49 48 46 44 43 42 41
53 53 52 51 51 52 51 52 52 52 49 48 47 47 46 45 44 43 44 46 46 48 47 46 47 47 46 44 44 46 49 48 47 44 41 40 39 40 39 40 39 40 40
53 50 52 52 51 51 49 51 53 53 52 50 50 49 49 49 48 47 45 46 45 43 42 42 45 41 43 41 42 43 43 43 44 40 38 37 37 37 37 38 38 37 40
MSLP
1009.17 1009.09 1009.44 1010.29 1010.51 1011.84 1012.15 1013.23 1012.73 1012.15 1012.69 1013.33 1013.86 1013.98 1014.20 1013.93 1013.78 1013.27 1013.17 1013.19 1013.25 1013.34 1013.56 1013.90 1014.37 1014.51 1014.91 1015.11 1015.61 1016.06 1016.29 1016.22 1016.32 1016.69 1016.84 1016.81 1016.58 1016.68 1016.77 1016.66 1016.86 1017.07 1017.09
1009.86 1009.82 1009.13 1008.92 1010.14 1013.18 1013.62 1013.72 1014.57 1013.93 1013.27 1012.72 1013.35 1013.42 1013.71 1013.50 1013.46 1013.13 1012.90 1012.76 1012.74 1012.98 1013.04 1013.39 1013.81 1014.21 1014.59 1014.98 1015.32 1015.74 1016.12 1016.15 1016.16 1016.72 1017.11 1017.32 1017.16 1016.84 1016.61 1016.63 1016.70 1016.78 1016.77
1010.56 1010.68 1010.46 1010.71 1011.83 1013.87 1013.91 1014.41 1013.90 1013.27 1013.83 1012.63 1013.03 1013.25 1013.54 1013.54 1013.66 1013.40 1012.94 1012.66 1012.53 1012.61 1012.73 1012.80 1013.25 1013.76 1014.09 1014.54 1014.92 1015.29 1015.78 1015.97 1016.09 1016.18 1016.64 1017.10 1017.20 1017.10 1016.76 1016.62 1016.71 1016.78 1016.80
1010.47 1011.10 1010.86 1011.32 1011.87 1013.61 1012.71 1011.90 1012.76 1013.85 1013.46 1012.84 1013.12 1013.49 1013.86 1013.93 1013.66 1013.49 1013.01 1012.71 1012.38 1012.22 1012.29 1012.45 1012.80 1013.32 1013.70 1014.02 1014.34 1014.78 1015.35 1015.69 1015.97 1016.33 1016.42 1016.36 1016.46 1016.85 1017.10 1016.73 1016.65 1016.54 1016.51
1009.76 1010.60 1011.47 1011.86 1012.27 1013.38 1013.12 1012.35 1013.10 1013.96 1013.47 1012.66 1013.17 1013.94 1013.82 1013.97 1013.91 1013.60 1013.25 1012.76 1012.33 1012.07 1012.00 1012.24 1012.68 1013.05 1013.41 1013.65 1014.06 1014.58 1015.00 1015.27 1015.40 1015.67 1016.08 1016.42 1016.45 1016.54 1016.77 1017.12 1016.93 1016.73 1016.46
1009.74 1010.18 1011.63 1012.11 1012.28 1012.89 1012.41 1012.42 1012.90 1013.22 1013.29 1013.52 1013.82 1014.09 1014.08 1014.45 1014.20 1013.58 1013.05 1012.64 1012.20 1011.86 1011.87 1012.02 1012.41 1012.69 1013.00 1013.31 1013.72 1014.16 1014.58 1014.81 1015.05 1015.20 1015.46 1015.69 1016.13 1016.43 1016.63 1016.86 1016.88 1016.73 1016.25
1009.66 1010.46 1011.26 1012.14 1012.46 1012.76 1012.51 1012.36 1012.74 1013.51 1013.80 1013.97 1014.18 1014.19 1014.38 1014.23 1014.12 1013.45 1012.89 1012.87 1012.34 1011.91 1011.85 1012.04 1012.32 1012.54 1012.66 1012.92 1013.39 1013.89 1014.29 1014.52 1014.82 1014.94 1015.00 1015.23 1015.45 1015.57 1015.92 1016.38 1016.64 1016.70 1016.23
1009.97 1010.47 1010.75 1011.95 1012.55 1012.42 1012.74 1012.94 1013.16 1013.62 1013.82 1013.83 1014.23 1014.58 1014.46 1013.75 1013.85 1013.34 1012.97 1012.85 1012.17 1011.82 1011.89 1012.11 1012.18 1012.29 1012.48 1012.77 1013.15 1013.54 1013.91 1014.21 1014.39 1014.63 1014.90 1015.09 1015.24 1015.41 1015.61 1015.95 1016.33 1016.57 1016.29
1012.15 1011.41 1011.51 1011.59 1012.03 1012.58 1012.67 1012.99 1013.38 1013.67 1013.77 1013.74 1014.06 1014.35 1013.88 1013.60 1013.75 1013.29 1012.93 1012.65 1012.37 1012.01 1011.81 1011.88 1012.07 1012.25 1012.38 1012.62 1012.95 1013.32 1013.60 1013.92 1014.10 1014.33 1014.61 1014.88 1015.11 1015.28 1015.52 1015.67 1015.86 1016.07 1016.38
1010.84 1011.56 1010.53 1011.43 1012.04 1012.29 1012.61 1012.99 1013.03 1013.20 1013.45 1013.46 1013.62 1013.70 1013.58 1013.67 1013.71 1013.37 1013.17 1012.84 1012.55 1012.20 1012.01 1011.93 1012.09 1012.30 1012.43 1012.61 1012.91 1013.23 1013.42 1013.66 1013.86 1014.11 1014.36 1014.61 1014.93 1015.18 1015.36 1015.57 1015.80 1015.89 1016.01
1010.01 1010.22 1010.20 1010.40 1011.79 1012.14 1012.37 1012.85 1013.07 1012.97 1013.19 1013.36 1013.38 1013.38 1013.66 1013.82 1013.61 1013.49 1013.34 1013.17 1012.89 1012.67 1012.50 1012.39 1012.31 1012.43 1012.57 1012.73 1012.92 1013.07 1013.28 1013.52 1013.72 1013.86 1014.15 1014.62 1014.91 1015.31 1015.35 1015.36 1015.63 1015.82 1015.81
1010.10 1010.95 1010.85 1009.22 1010.87 1012.02 1012.11 1012.16 1012.64 1012.82 1012.91 1012.98 1013.28 1013.49 1013.70 1013.74 1013.61 1013.62 1013.59 1013.42 1013.35 1013.21 1013.00 1012.92 1012.83 1012.74 1012.74 1012.80 1013.06 1013.09 1013.24 1013.45 1013.72 1014.06 1014.44 1014.84 1014.96 1015.05 1015.09 1015.40 1015.75 1015.85 1015.77
1010.43 1011.46 1011.42 1011.21 1010.63 1011.60 1011.79 1011.98 1012.40 1012.75 1012.81 1012.92 1013.30 1013.60 1013.64 1013.78 1013.73 1013.80 1013.87 1013.92 1013.98 1013.89 1013.71 1013.50 1013.42 1013.47 1013.39 1013.39 1013.62 1013.74 1013.85 1014.05 1014.31 1014.46 1014.59 1014.76 1014.92 1015.25 1015.53 1015.72 1015.91 1016.04 1016.00
1010.22 1010.90 1011.19 1011.60 1011.38 1011.91 1012.20 1012.04 1012.42 1012.81 1012.80 1012.91 1013.09 1013.35 1013.55 1013.72 1013.80 1013.95 1014.20 1014.50 1014.63 1014.65 1014.67 1014.40 1014.27 1014.26 1014.20 1014.15 1014.25 1014.38 1014.73 1014.90 1015.14 1015.27 1015.22 1015.36 1015.53 1015.76 1015.96 1016.08 1016.19 1016.25 1016.28
1010.86 1010.99 1011.20 1011.15 1011.70 1012.26 1012.64 1012.13 1012.42 1012.68 1012.72 1012.83 1012.80 1012.86 1013.17 1013.62 1013.89 1014.17 1014.72 1015.16 1015.34 1015.49 1015.35 1015.25 1015.05 1014.92 1014.92 1015.03 1015.01 1015.12 1015.40 1015.70 1016.06 1016.08 1016.12 1016.30 1016.48 1016.62 1016.60 1016.63 1016.68 1016.58 1016.75
1011.01 1010.66 1011.06 1011.62 1012.63 1012.93 1013.11 1012.91 1012.96 1012.86 1012.43 1012.77 1012.94 1012.81 1013.06 1013.31 1013.98 1014.57 1015.10 1015.65 1015.95 1016.17 1016.02 1016.04 1015.87 1015.77 1015.85 1015.86 1015.90 1016.03 1016.36 1016.77 1017.00 1017.06 1017.13 1017.17 1017.28 1017.32 1017.28 1017.31 1017.40 1017.29 1017.25
1011.34 1011.29 1011.88 1012.86 1013.37 1013.39 1013.43 1013.45 1013.37 1013.00 1012.85 1012.89 1012.90 1013.25 1013.50 1013.85 1014.33 1014.87 1015.52 1016.09 1016.48 1016.58 1016.82 1016.82 1016.66 1016.61 1016.57 1016.47 1016.56 1016.81 1017.10 1017.41 1017.69 1017.81 1017.90 1017.95 1018.16 1018.18 1018.07 1018.09 1018.06 1017.99 1017.97
1011.74 1012.18 1012.92 1013.58 1014.19 1014.36 1014.15 1014.18 1013.98 1013.72 1013.31 1013.28 1012.93 1013.33 1013.73 1014.28 1014.90 1015.57 1016.12 1016.47 1016.89 1017.22 1017.48 1017.54 1017.46 1017.33 1017.41 1017.22 1017.29 1017.49 1017.93 1018.40 1018.59 1018.51 1018.46 1018.59 1018.66 1018.74 1018.58 1018.58 1018.75 1018.90 1018.85
1012.40 1012.93 1013.70 1014.44 1014.91 1014.92 1015.00 1014.86 1014.70 1014.47 1013.91 1013.87 1013.49 1013.52 1013.90 1014.59 1015.40 1016.20 1016.84 1017.27 1017.64 1018.06 1018.16 1018.06 1017.91 1017.92 1018.19 1018.17 1018.13 1018.28 1018.69 1019.06 1019.41 1019.38 1019.31 1019.37 1019.35 1019.41 1019.43 1019.34 1019.61 1019.78 1019.94
1013.27 1013.74 1014.55 1015.00 1015.40 1015.51 1015.73 1015.30 1015.43 1015.29 1014.76 1014.64 1014.48 1013.96 1014.25 1014.83 1015.57 1016.47 1017.36 1017.95 1018.20 1018.56 1018.65 1018.76 1018.79 1018.76 1018.76 1018.84 1018.73 1018.89 1019.30 1019.67 1020.06 1020.21 1020.29 1020.31 1020.24 1020.19 1020.20 1020.05 1020.29 1020.54 1020.76
1014.54 1015.23 1015.69 1015.82 1016.15 1016.33 1016.26 1015.93 1015.95 1015.85 1015.67 1015.47 1015.38 1015.15 1015.22 1015.62 1016.44 1016.85 1017.50 1018.25 1018.67 1018.94 1019.08 1019.19 1019.47 1019.52 1019.54 1019.50 1019.55 1019.60 1019.66 1020.01 1020.44 1020.80 1021.15 1021.25 1021.12 1021.11 1020.99 1020.85 1020.81 1020.98 1020.97
1015.38 1016.02 1016.52 1016.45 1016.77 1016.78 1016.25 1016.26 1016.47 1016.37 1016.29 1016.44 1016.42 1016.50 1016.49 1016.82 1017.37 1017.75 1018.07 1018.44 1018.95 1019.24 1019.68 1019.64 1020.19 1020.37 1020.39 1020.27 1020.30 1020.40 1020.40 1020.63 1020.80 1021.24 1021.65 1021.85 1021.84 1021.81 1021.67 1021.58 1021.51 1021.46 1021.56
1016.41 1016.80 1016.94 1017.14 1017.08 1016.85 1016.72 1017.00 1017.06 1016.94 1017.01 1016.88 1017.18 1017.43 1017.59 1017.82 1018.39 1018.75 1018.93 1018.74 1019.30 1019.74 1020.14 1020.12 1020.99 1021.20 1021.29 1021.19 1021.20 1021.19 1021.20 1021.46 1021.70 1021.96 1022.05 1022.24 1022.31 1022.24 1022.37 1022.32 1022.26 1022.34 1022.42
1016.48 1016.90 1017.12 1017.22 1017.45 1017.45 1017.44 1017.56 1017.55 1017.42 1017.50 1017.83 1018.15 1018.27 1018.34 1018.82 1019.29 1019.50 1019.68 1019.69 1019.80 1020.48 1020.75 1021.09 1021.62 1021.72 1021.92 1022.00 1022.03 1022.01 1021.95 1022.07 1022.30 1022.50 1022.54 1022.74 1022.94 1023.26 1023.39 1023.27 1023.48 1023.47 1023.39
1016.54 1016.74 1016.93 1017.52 1017.85 1017.89 1017.89 1017.92 1018.02 1017.99 1018.26 1018.74 1019.08 1019.27 1019.45 1019.80 1020.22 1020.53 1020.97 1020.73 1020.76 1020.90 1021.58 1021.76 1022.07 1022.24 1022.58 1022.82 1022.61 1022.66 1022.70 1022.79 1022.96 1023.20 1023.37 1023.74 1024.10 1024.37 1024.41 1024.33 1024.28 1024.19 1024.07
1016.85 1017.25 1017.58 1017.81 1018.06 1018.19 1017.95 1017.96 1018.35 1018.51 1018.80 1019.36 1019.73 1020.03 1020.14 1020.58 1020.76 1021.27 1021.44 1021.65 1021.79 1021.86 1022.16 1022.14 1022.37 1022.79 1022.95 1022.97 1022.84 1022.86 1022.97 1023.17 1023.26 1023.98 1024.59 1024.91 1025.05 1025.17 1025.30 1025.23 1025.20 1025.02 1024.95
Wind_Speed
3 7 8 11 12 19 5 8 1 6 4 2 2 2 4 3 4 5 6 6 7 8 9 6 5 5 6 7 5 3 5 4 3 2 1 2 2 4 4 3 6 6 8
4 2 6 5 14 8 6 14 19 14 5 3 2 2 2 3 2 3 5 5 5 6 7 8 7 7 4 5 5 5 2 2 4 3 1 1 3 2 3 3 4 7 5
8 4 7 9 14 8 11 10 21 11 11 4 2 2 1 1 3 3 3 4 5 6 6 7 7 7 6 6 6 6 6 4 3 4 4 2 4 1 1 4 4 5 4
8 4 2 5 12 10 9 12 10 8 10 4 2 1 1 3 3 2 3 5 5 5 5 5 6 6 5 6 7 6 4 3 4 1 3 0 3 3 0 2 3 4 6
6 9 7 6 4 7 7 13 11 10 9 4 3 1 1 3 4 4 6 6 5 5 5 6 6 6 5 5 6 6 5 4 3 3 3 2 1 2 2 2 2 2 4
8 6 8 4 3 4 6 8 7 4 2 4 3 2 1 5 4 4 3 4 4 3 4 5 5 5 5 6 6 6 7 6 4 3 4 4 4 3 3 2 3 3 4
5 7 11 7 6 6 8 8 6 5 5 4 3 1 2 2 5 5 3 4 2 1 2 5 5 4 5 5 5 5 5 6 6 6 4 3 3 3 3 3 2 2 3
5 6 5 7 8 7 7 6 8 6 7 5 3 2 5 2 3 3 2 3 1 1 1 2 4 5 5 5 5 4 4 5 5 7 5 3 3 3 2 3 4 1 2
11 5 4 7 9 9 10 8 7 6 7 7 5 3 0 4 4 5 3 3 4 3 3 3 2 3 4 5 5 4 6 5 4 5 6 3 3 3 3 3 2 3 0
4 4 7 6 6 6 5 6 7 8 6 6 6 4 1 1 2 4 6 6 5 5 4 4 3 0 3 4 5 5 4 6 4 3 5 4 3 4 4 3 2 1 2
18 13 13 11 7 6 7 7 6 7 6 6 5 5 2 1 3 4 5 5 5 6 5 4 5 4 1 3 4 4 4 4 4 4 5 4 4 3 3 2 1 0 1
14 10 8 14 9 6 6 7 6 6 6 6 5 5 3 1 4 5 5 5 5 5 5 5 6 6 6 6 4 4 4 6 6 6 6 5 4 3 3 3 2 1 1
7 3 3 5 9 7 6 7 6 6 6 5 6 4 3 2 4 5 4 5 5 6 6 6 7 7 7 8 8 7 8 8 6 4 5 5 5 4 4 4 5 3 2
9 9 7 6 5 3 4 4 4 4 6 6 6 5 5 4 4 5 6 6 5 6 7 7 8 8 8 9 9 10 10 9 8 7 7 6 5 7 5 4 5 4 4
7 6 6 5 4 6 3 5 5 3 4 5 6 7 6 6 5 6 6 6 7 6 6 7 7 7 7 5 7 8 8 8 8 8 9 9 10 9 6 3 2 4 3
7 7 10 11 8 7 6 5 5 4 3 5 3 4 6 9 7 7 7 7 6 6 6 6 7 7 6 10 12 9 7 7 6 7 7 7 9 11 14 14 14 11 2
1 10 11 8 5 6 4 6 6 5 4 3 4 5 6 6 7 8 7 7 6 6 7 6 6 6 5 10 12 12 6 7 5 5 4 5 5 7 6 12 15 17 17
7 9 8 7 6 5 6 5 5 6 6 6 3 6 7 8 8 7 7 6 5 6 5 5 5 4 6 11 13 15 9 8 8 7 5 6 6 6 7 10 12 12 13
9 10 8 5 5 5 6 5 6 6 6 8 2 6 9 10 8 8 6 5 7 5 5 4 6 8 7 10 12 11 8 9 9 8 7 6 6 9 8 9 9 8 7
9 9 7 6 5 5 4 6 5 5 7 7 8 4 8 9 11 9 7 4 6 5 5 7 8 9 7 9 11 9 5 9 7 8 9 16 9 13 11 8 6 8 5
10 8 6 5 5 4 3 6 5 7 6 7 8 8 8 9 8 10 8 7 7 7 8 9 8 8 7 8 10 9 7 7 7 7 6 5 13 12 12 9 5 3 3
9 7 4 5 4 3 5 7 7 5 6 8 9 10 9 7 6 8 7 8 7 8 7 9 7 6 7 10 12 13 11 9 8 7 5 6 12 11 10 8 10 10 7
7 4 4 4 4 5 5 6 4 5 6 10 10 10 10 10 8 8 6 7 6 6 5 7 5 5 5 6 12 13 14 12 7 5 7 9 10 11 9 15 14 10 5
5 4 5 5 6 5 7 6 6 7 9 10 9 8 9 9 8 7 5 4 6 5 5 6 4 4 4 5 4 5 6 9 6 7 7 8 10 12 8 7 7 5 4
4 4 5 5 5 5 6 6 6 8 9 9 8 8 7 8 8 8 4 4 4 5 4 4 4 6 5 2 3 5 4 4 4 5 4 5 4 5 4 5 5 5 5
6 6 5 6 5 5 6 7 5 7 8 8 6 5 6 5 6 6 7 15 11 11 9 10 5 4 6 6 8 7 6 6 5 6 4 3 3 4 2 3 3 4 5
Wind_Direction
93 74 93 85 58 354 311 357 316 187 168 126 168 179 226 231 247 235 232 223 221 214 199 201 210 185 189 198 190 184 202 214 175 125 271 285 226 218 215 189 197 207 208
99 154 159 129 113 202 327 3 325 321 255 135 176 164 230 262 263 276 268 256 235 216 193 192 195 186 180 189 182 172 179 211 179 143 139 162 342 297 222 203 210 210 204
151 196 230 111 107 142 124 133 263 305 276 146 122 30 359 333 317 286 285 266 243 223 203 198 194 190 183 190 190 181 184 182 195 202 163 120 214 163 295 218 207 217 211
137 166 325 90 109 143 169 122 247 277 276 147 107 76 247 276 281 273 291 290 261 232 213 200 183 184 187 186 192 186 185 144 187 145 214 244 149 160 343 325 243 225 218
131 153 127 145 162 145 202 161 190 257 251 99 103 186 314 309 301 300 291 276 268 238 209 195 189 183 181 192 177 178 180 187 168 182 146 188 78 73 126 200 272 310 252
213 196 150 154 182 177 183 203 212 227 189 123 130 147 216 270 287 286 300 301 291 254 204 187 184 187 184 182 183 188 194 190 204 191 161 164 164 189 164 188 219 216 259
169 155 158 152 185 209 196 208 166 175 130 138 142 139 259 278 301 293 304 306 296 0 220 179 179 180 190 185 168 171 193 187 198 194 186 175 186 156 145 130 195 227 263
197 143 148 142 167 172 191 152 156 146 164 144 124 252 245 56 312 332 334 318 350 79 91 181 181 194 187 178 178 172 187 187 206 188 193 199 188 164 143 157 153 230 287
350 55 130 136 141 177 182 153 157 169 178 160 159 211 346 49 360 358 359 10 350 348 85 131 168 192 200 184 173 186 207 194 194 196 186 182 184 155 140 128 150 160 94
311 277 146 134 160 171 142 160 165 168 179 164 166 177 147 40 21 28 16 14 2 18 40 63 67 267 208 188 177 200 199 212 193 174 177 165 148 151 146 137 149 124 167
199 198 187 150 157 163 168 180 173 161 172 172 166 160 194 123 53 39 31 24 19 25 42 63 75 51 349 195 177 186 170 172 166 148 145 123 139 160 168 101 76 114 142
172 199 208 139 144 191 181 174 174 172 179 175 169 172 172 89 61 50 37 38 38 31 39 36 51 62 65 74 98 116 121 137 125 116 114 128 148 143 111 98 76 44 135
158 163 222 189 153 181 183 179 175 197 182 171 177 168 150 106 87 74 54 48 44 36 33 52 59 62 68 73 64 71 73 67 66 81 142 149 130 113 107 107 99 67 57
141 159 172 193 167 157 243 184 165 200 176 174 176 169 176 153 115 93 73 63 47 41 32 39 53 51 60 76 85 81 73 66 56 54 62 60 97 114 104 104 116 103 85
139 151 154 127 109 84 46 78 114 212 197 181 180 180 164 141 121 99 83 66 55 44 38 40 45 50 53 48 64 73 78 77 64 51 57 58 66 68 75 99 76 112 95
181 147 93 83 71 64 36 34 36 6 182 214 215 149 146 138 123 110 98 88 75 55 55 46 49 49 58 74 79 79 77 71 74 72 59 51 56 59 63 67 57 44 27
46 84 88 83 63 54 40 26 358 356 13 249 185 133 126 120 123 120 109 100 86 78 62 46 43 51 51 77 83 85 81 84 82 86 85 80 67 60 57 62 61 52 49
98 81 84 75 43 23 34 16 17 9 6 353 172 140 129 122 114 108 109 99 80 71 71 61 54 59 46 74 75 74 67 56 41 34 56 70 68 58 78 76 67 56 53
92 87 81 74 57 36 19 39 25 17 23 10 346 144 137 125 118 108 95 85 94 79 62 55 62 81 68 63 75 78 73 68 51 36 48 69 74 68 60 77 74 70 63
88 89 81 76 56 37 36 67 44 36 28 13 346 128 132 133 127 120 102 77 85 78 66 60 49 61 82 67 81 92 92 81 71 53 47 59 70 63 52 69 72 70 37
83 81 80 76 52 28 60 72 58 41 23 29 34 41 75 101 108 110 110 107 100 97 83 76 60 59 51 63 66 69 92 99 93 82 65 45 56 58 54 52 66 86 98
85 76 74 71 50 45 73 66 57 41 63 62 58 52 62 73 84 97 107 105 102 92 86 84 71 51 47 57 69 68 66 77 94 85 72 63 58 52 45 48 46 46 58
111 110 102 89 55 51 62 82 51 63 77 80 74 68 67 68 64 74 79 94 90 95 91 88 81 74 58 67 64 75 76 66 76 76 83 66 54 46 44 44 44 41 45
112 123 112 91 72 64 63 63 70 76 76 75 70 75 84 75 62 68 44 59 86 86 87 89 101 86 73 64 51 63 72 68 67 58 57 66 68 65 56 44 35 38 56
102 95 101 100 95 89 83 83 84 87 86 85 83 80 78 82 83 64 31 67 49 80 111 107 111 108 102 84 72 76 78 74 75 70 41 40 43 52 36 35 38 33 42
136 127 131 126 120 114 109 98 88 106 108 99 92 90 97 92 92 98 82 47 61 70 81 80 99 48 92 104 82 78 83 95 98 58 71 61 61 86 74 58 46 38 45